1998-067SW (49277 NORAD) Tracking and Keplerian Element Data

This shows tracking and keplerian element data for the satellite.

Feedback or suggestion? Click here.




ElementValue
Catalog49277
Name1998-067SW
Epoch Orbit30
Epoch Day287.03056059
Epoch Year2021
RAAN115.0839
Inclination51.64
Eccentricity0.0006475
Argument of Perigee135.9888
Mean Anonmoly6.6486
Mean Motion15.49548244
Decay Rate0.00027394
L11 49277U 98067SW 21287.03056059 .00027394 00000-0 49379-3 0 9997
L22 49277 51.6400 115.0839 0006475 135.9888 6.6486 15.49548244 307

Live tracking and technical data element details for 1998-067SW (NORAD 49277). 1998-067SW can be tracked NOW for your location showing map with azimuth and elevation plus other details from your city location.

Track the satellite on the map from your city or location and see movement details for azimuth, elevation, latitude, longitude, range, height, and movement on the map or in text.







IsCatalogInMostPopularTable: catalog: 49277, numindb: -1

Insert: records affected: 1


GetName: 49277 1998-067SW

Hit Count: inserted at: Tue, 19 Oct 2021 07:52:12 GMT